WBANNO,USDM_WEEK,LONGITUDE,LATITUDE,SMVWC_5_CM_MEAN,SMANOM_5_CM_MEAN,SMPERC_5_CM_30COUNTS,SMPERC_5_CM_70COUNTS,SMVWC_10_CM_MEAN,SMANOM_10_CM_MEAN,SMPERC_10_CM_30COUNTS,SMPERC_10_CM_70COUNTS,SMVWC_20_CM_MEAN,SMANOM_20_CM_MEAN,SMPERC_20_CM_30COUNTS,SMPERC_20_CM_70COUNTS,SMVWC_50_CM_MEAN,SMANOM_50_CM_MEAN,SMPERC_50_CM_30COUNTS,SMPERC_50_CM_70COUNTS,SMVWC_100_CM_MEAN,SMANOM_100_CM_MEAN,SMPERC_100_CM_30COUNTS,SMPERC_100_CM_70COUNTS,SMVWC_TOP_CM_MEAN,SMANOM_TOP_CM_MEAN,SMPERC_TOP_CM_30COUNTS,SMPERC_TOP_CM_70COUNTS,SMVWC_COLUMN_CM_MEAN,SMANOM_COLUMN_CM_MEAN,SMPERC_COLUMN_CM_30COUNTS,SMPERC_COLUMN_CM_70COUNTS
94996,20090604,-96.85,40.7,,,,,,,,,,,,,,,,,,,,,,,,,,,,
94996,20090605,-96.85,40.7,,,,,,,,,,,,,,,,,,,,,,,,,,,,
94996,20090606,-96.85,40.7,,,,,,,,,,,,,,,,,,,,,,,,,,,,
94996,20090607,-96.85,40.7,,,,,,,,,,,,,,,,,,,,,,,,,,,,
94996,20090608,-96.85,40.7,,,,,,,,,,,,,,,,,,,,,,,,,,,,
94996,20090609,-96.85,40.7,0.293,-0.05,0.126,0,0.277,-0.43,0.452,0,0.239,-0.9,1,0,0.314,-0.03,0,0,0.382,0.33,0,0.119,0.285,-0.23,0.444,0,0.301,-0.3,0.407,0
94996,20090610,-96.85,40.7,0.297,-0.03,0.107,0,0.289,-0.33,0.384,0,0.244,-0.87,1,0,0.314,-0.03,0,0,0.38,0.31,0,0.101,0.293,-0.17,0.377,0,0.305,-0.26,0.346,0
94996,20090611,-96.85,40.7,0.301,0,0.101,0,0.309,-0.18,0.274,0,0.251,-0.82,1,0,0.314,-0.02,0,0,0.377,0.29,0,0.024,0.305,-0.08,0.268,0,0.311,-0.21,0.268,0
94996,20090612,-96.85,40.7,0.307,0.05,0.065,0,0.334,0.02,0.131,0,0.259,-0.77,1,0,0.314,-0.01,0,0,0.374,0.26,0,0,0.321,0.03,0.125,0,0.318,-0.14,0.125,0
94996,20090613,-96.85,40.7,0.314,0.1,0,0,0.356,0.19,0,0,0.268,-0.71,1,0,0.314,0,0,0,0.372,0.24,0,0,0.335,0.14,0,0,0.325,-0.06,0,0
94996,20090614,-96.85,40.7,0.312,0.09,0,0,0.358,0.22,0,0,0.276,-0.66,1,0,0.314,0,0,0,0.37,0.23,0,0,0.335,0.15,0,0,0.326,-0.05,0,0
94996,20090615,-96.85,40.7,0.304,0.05,0,0,0.356,0.21,0,0,0.28,-0.64,1,0,0.314,0,0,0,0.368,0.23,0,0,0.33,0.12,0,0,0.324,-0.05,0,0
94996,20090616,-96.85,40.7,0.302,0.05,0,0.048,0.356,0.22,0,0.048,0.285,-0.6,0.97,0,0.314,0.01,0,0,0.367,0.22,0,0,0.329,0.13,0,0.048,0.325,-0.03,0,0.03
94996,20090617,-96.85,40.7,0.308,0.11,0,0.173,0.361,0.27,0,0.19,0.302,-0.49,0.827,0,0.314,0.02,0,0,0.366,0.23,0,0,0.335,0.19,0,0.19,0.33,0.03,0,0.143
94996,20090618,-96.85,40.7,0.311,0.14,0,0.214,0.365,0.31,0,0.333,0.318,-0.38,0.685,0,0.315,0.04,0,0,0.365,0.23,0,0,0.338,0.22,0,0.31,0.335,0.09,0,0.143
94996,20090619,-96.85,40.7,0.312,0.17,0,0.214,0.367,0.35,0,0.476,0.333,-0.28,0.542,0,0.316,0.06,0,0,0.365,0.24,0,0,0.339,0.25,0,0.31,0.338,0.14,0,0.143
94996,20090620,-96.85,40.7,0.314,0.2,0,0.268,0.369,0.38,0,0.56,0.346,-0.18,0.399,0,0.316,0.09,0,0,0.364,0.25,0,0,0.341,0.28,0,0.369,0.342,0.19,0,0.143
94996,20090621,-96.85,40.7,0.32,0.25,0,0.31,0.372,0.41,0,0.631,0.361,-0.07,0.256,0.024,0.318,0.12,0,0.006,0.364,0.25,0,0,0.346,0.33,0,0.411,0.347,0.25,0,0.179
94996,20090622,-96.85,40.7,0.33,0.33,0,0.429,0.379,0.48,0,0.774,0.382,0.08,0.113,0.167,0.323,0.2,0,0.149,0.363,0.26,0,0,0.354,0.4,0,0.554,0.355,0.35,0,0.321
94996,20090623,-96.85,40.7,0.331,0.34,0,0.381,0.382,0.51,0,0.869,0.398,0.2,0,0.31,0.332,0.32,0,0.292,0.363,0.26,0,0,0.356,0.43,0,0.589,0.361,0.42,0,0.435
94996,20090624,-96.85,40.7,0.323,0.29,0,0.256,0.379,0.49,0,0.827,0.401,0.23,0,0.375,0.341,0.43,0,0.435,0.363,0.27,0,0.089,0.351,0.39,0,0.446,0.361,0.43,0,0.435
94996,20090625,-96.85,40.7,0.319,0.27,0,0.214,0.376,0.47,0,0.702,0.403,0.25,0,0.375,0.35,0.54,0,0.577,0.362,0.28,0,0.179,0.348,0.37,0,0.327,0.362,0.44,0,0.53
94996,20090626,-96.85,40.7,0.315,0.25,0,0.214,0.372,0.45,0,0.56,0.404,0.26,0,0.375,0.359,0.65,0,0.72,0.362,0.29,0,0.238,0.344,0.35,0,0.327,0.363,0.45,0,0.53
94996,20090627,-96.85,40.7,0.305,0.2,0,0.161,0.367,0.41,0,0.476,0.404,0.26,0,0.375,0.368,0.75,0,0.863,0.362,0.3,0,0.363,0.336,0.3,0,0.268,0.361,0.45,0,0.53
94996,20090628,-96.85,40.7,0.289,0.11,0,0.119,0.357,0.35,0,0.405,0.4,0.24,0,0.351,0.377,0.86,0,1,0.363,0.31,0,0.464,0.323,0.23,0,0.226,0.357,0.42,0,0.494
94996,20090629,-96.85,40.7,0.269,-0.01,0.048,0,0.34,0.24,0,0.262,0.387,0.16,0,0.208,0.38,0.9,0,1,0.364,0.32,0,0.589,0.304,0.11,0.006,0.083,0.348,0.34,0,0.351
94996,20090630,-96.85,40.7,0.25,-0.1,0.19,0,0.322,0.12,0.012,0.119,0.373,0.06,0.101,0.065,0.38,0.91,0,1,0.364,0.33,0,0.72,0.286,0,0.137,0,0.338,0.25,0,0.208
94996,20090701,-96.85,40.7,0.235,-0.18,0.333,0,0.305,0.01,0.155,0.018,0.357,-0.05,0.244,0,0.379,0.91,0,1,0.364,0.34,0,0.768,0.27,-0.09,0.28,0,0.328,0.16,0,0.095
94996,20090702,-96.85,40.7,0.218,-0.26,0.476,0,0.287,-0.1,0.298,0,0.341,-0.17,0.387,0,0.376,0.91,0,1,0.365,0.35,0,0.821,0.252,-0.19,0.423,0,0.317,0.07,0.012,0
94996,20090703,-96.85,40.7,0.204,-0.33,0.619,0,0.27,-0.2,0.44,0,0.324,-0.28,0.53,0,0.373,0.89,0,1,0.365,0.35,0,0.851,0.237,-0.27,0.565,0,0.307,-0.01,0.024,0
94996,20090704,-96.85,40.7,0.198,-0.35,0.708,0,0.256,-0.29,0.583,0,0.308,-0.39,0.673,0,0.369,0.87,0,1,0.365,0.35,0,0.833,0.227,-0.32,0.655,0,0.299,-0.07,0.03,0
94996,20090705,-96.85,40.7,0.199,-0.32,0.708,0,0.246,-0.34,0.726,0,0.295,-0.48,0.815,0,0.365,0.84,0,1,0.364,0.36,0,0.81,0.223,-0.33,0.655,0,0.294,-0.1,0.03,0
94996,20090706,-96.85,40.7,0.2,-0.29,0.661,0,0.239,-0.36,0.845,0,0.283,-0.54,0.958,0,0.362,0.81,0,1,0.364,0.35,0,0.708,0.219,-0.32,0.649,0,0.289,-0.12,0.03,0
94996,20090707,-96.85,40.7,0.199,-0.27,0.518,0,0.234,-0.37,0.899,0,0.275,-0.58,1,0,0.358,0.78,0,1,0.363,0.36,0,0.69,0.216,-0.31,0.518,0,0.286,-0.12,0.03,0
94996,20090708,-96.85,40.7,0.198,-0.26,0.399,0,0.231,-0.36,0.81,0,0.268,-0.59,1,0,0.354,0.75,0,1,0.363,0.36,0,0.696,0.215,-0.3,0.381,0,0.283,-0.12,0.03,0
94996,20090709,-96.85,40.7,0.198,-0.24,0.339,0,0.229,-0.34,0.738,0,0.264,-0.59,1,0,0.35,0.72,0,1,0.362,0.37,0,0.696,0.213,-0.28,0.268,0,0.28,-0.11,0.018,0
94996,20090710,-96.85,40.7,0.197,-0.23,0.327,0,0.228,-0.32,0.708,0,0.26,-0.58,1,0,0.346,0.69,0,1,0.362,0.38,0,0.75,0.212,-0.26,0.214,0,0.278,-0.09,0.006,0
94996,20090711,-96.85,40.7,0.193,-0.23,0.345,0,0.226,-0.3,0.661,0,0.257,-0.57,1,0,0.342,0.66,0,1,0.362,0.4,0,0.786,0.209,-0.26,0.25,0,0.276,-0.09,0,0
94996,20090712,-96.85,40.7,0.182,-0.28,0.44,0,0.223,-0.29,0.619,0,0.253,-0.57,1,0,0.338,0.63,0,1,0.361,0.42,0,0.851,0.203,-0.28,0.339,0,0.272,-0.1,0,0
94996,20090713,-96.85,40.7,0.175,-0.31,0.488,0,0.22,-0.29,0.565,0,0.249,-0.57,1,0,0.334,0.6,0,1,0.361,0.44,0,0.97,0.198,-0.3,0.387,0,0.268,-0.11,0,0
94996,20090714,-96.85,40.7,0.171,-0.32,0.536,0,0.217,-0.29,0.5,0,0.245,-0.57,1,0,0.33,0.56,0,1,0.361,0.46,0,1,0.194,-0.3,0.393,0,0.265,-0.12,0,0
94996,20090715,-96.85,40.7,0.171,-0.3,0.512,0,0.215,-0.27,0.446,0,0.242,-0.56,1,0,0.326,0.54,0,1,0.36,0.48,0,1,0.193,-0.28,0.387,0,0.263,-0.11,0,0
94996,20090716,-96.85,40.7,0.171,-0.28,0.429,0,0.214,-0.25,0.375,0,0.241,-0.54,1,0,0.323,0.52,0,1,0.359,0.5,0,1,0.192,-0.27,0.357,0,0.261,-0.1,0,0
94996,20090717,-96.85,40.7,0.17,-0.27,0.298,0,0.212,-0.24,0.262,0,0.239,-0.53,1,0,0.32,0.51,0,1,0.358,0.52,0,1,0.191,-0.26,0.268,0,0.26,-0.09,0,0
94996,20090718,-96.85,40.7,0.169,-0.26,0.19,0,0.21,-0.22,0.167,0,0.237,-0.51,1,0,0.317,0.5,0,1,0.357,0.54,0,1,0.19,-0.25,0.143,0,0.258,-0.08,0,0
94996,20090719,-96.85,40.7,0.168,-0.25,0.107,0,0.209,-0.21,0.065,0,0.235,-0.49,1,0,0.315,0.5,0,1,0.356,0.56,0,1,0.188,-0.24,0.054,0,0.256,-0.07,0,0
94996,20090720,-96.85,40.7,0.167,-0.25,0.095,0,0.208,-0.19,0,0,0.234,-0.47,1,0,0.312,0.49,0,1,0.354,0.57,0,1,0.187,-0.23,0.006,0,0.255,-0.06,0,0
94996,20090721,-96.85,40.7,0.166,-0.25,0.095,0,0.206,-0.19,0,0,0.232,-0.45,1,0,0.31,0.49,0,1,0.353,0.59,0,1,0.186,-0.23,0.012,0,0.253,-0.06,0,0
94996,20090722,-96.85,40.7,0.164,-0.26,0.095,0,0.204,-0.2,0,0,0.23,-0.44,1,0,0.308,0.48,0,1,0.351,0.6,0,1,0.184,-0.24,0.012,0,0.251,-0.06,0,0
94996,20090723,-96.85,40.7,0.163,-0.26,0.095,0,0.202,-0.2,0,0,0.229,-0.42,1,0,0.306,0.47,0,1,0.35,0.61,0,1,0.182,-0.24,0.012,0,0.25,-0.06,0,0
94996,20090724,-96.85,40.7,0.162,-0.26,0.095,0,0.201,-0.2,0,0,0.228,-0.41,1,0,0.304,0.45,0,1,0.348,0.62,0,1,0.182,-0.24,0.012,0,0.249,-0.05,0,0
94996,20090725,-96.85,40.7,0.162,-0.26,0.095,0,0.201,-0.19,0,0,0.228,-0.38,0.952,0,0.302,0.44,0,1,0.346,0.62,0,1,0.181,-0.24,0.012,0,0.248,-0.05,0,0
94996,20090726,-96.85,40.7,0.162,-0.26,0.095,0,0.201,-0.19,0,0,0.228,-0.36,0.851,0,0.301,0.44,0,1,0.345,0.63,0,1,0.182,-0.24,0.012,0,0.248,-0.04,0,0
94996,20090727,-96.85,40.7,0.163,-0.26,0.083,0,0.201,-0.18,0,0,0.229,-0.33,0.774,0,0.301,0.44,0,1,0.344,0.65,0,1,0.182,-0.24,0.018,0,0.248,-0.02,0,0
94996,20090728,-96.85,40.7,0.163,-0.26,0.042,0,0.202,-0.17,0,0,0.229,-0.31,0.643,0,0.3,0.43,0,1,0.344,0.67,0,1,0.182,-0.24,0.024,0,0.248,-0.02,0,0
94996,20090729,-96.85,40.7,0.161,-0.28,0.167,0,0.201,-0.17,0,0,0.229,-0.29,0.554,0,0.3,0.43,0,1,0.343,0.7,0,1,0.181,-0.25,0.125,0,0.247,-0.02,0,0
94996,20090730,-96.85,40.7,0.159,-0.3,0.31,0,0.2,-0.17,0.012,0,0.229,-0.27,0.518,0,0.299,0.43,0,1,0.343,0.73,0,1,0.179,-0.26,0.262,0,0.246,-0.02,0,0
94996,20090731,-96.85,40.7,0.157,-0.31,0.446,0,0.199,-0.18,0.024,0,0.228,-0.26,0.44,0,0.299,0.43,0,1,0.342,0.75,0,1,0.178,-0.27,0.381,0,0.245,-0.03,0,0
94996,20090801,-96.85,40.7,0.157,-0.31,0.548,0,0.198,-0.18,0.065,0,0.227,-0.25,0.387,0,0.298,0.42,0,1,0.342,0.78,0,1,0.177,-0.28,0.476,0,0.244,-0.04,0,0
94996,20090802,-96.85,40.7,0.157,-0.31,0.548,0,0.197,-0.19,0.089,0,0.225,-0.25,0.351,0,0.297,0.41,0,1,0.342,0.81,0,1,0.177,-0.28,0.5,0,0.243,-0.05,0,0
94996,20090803,-96.85,40.7,0.157,-0.31,0.571,0,0.196,-0.2,0.125,0,0.224,-0.25,0.304,0,0.296,0.4,0,1,0.341,0.83,0,1,0.176,-0.29,0.554,0,0.243,-0.05,0,0
94996,20090804,-96.85,40.7,0.157,-0.31,0.661,0,0.196,-0.2,0.125,0,0.224,-0.23,0.292,0.012,0.295,0.4,0,1,0.34,0.84,0,1,0.176,-0.29,0.601,0,0.243,-0.05,0,0.012
94996,20090805,-96.85,40.7,0.163,-0.26,0.536,0,0.202,-0.14,0.125,0,0.236,-0.13,0.238,0.018,0.298,0.43,0,1,0.339,0.84,0,1,0.182,-0.23,0.5,0,0.247,0.04,0,0.155
94996,20090806,-96.85,40.7,0.167,-0.23,0.393,0,0.207,-0.09,0.113,0,0.246,-0.04,0.131,0.018,0.299,0.45,0,1,0.338,0.85,0,1,0.187,-0.19,0.363,0,0.251,0.1,0,0.298
94996,20090807,-96.85,40.7,0.17,-0.2,0.256,0,0.211,-0.05,0.101,0,0.255,0.03,0.065,0.018,0.301,0.46,0,1,0.338,0.86,0,1,0.19,-0.16,0.244,0,0.255,0.16,0,0.405
94996,20090808,-96.85,40.7,0.172,-0.19,0.155,0,0.215,-0.02,0.06,0,0.262,0.08,0.024,0.018,0.302,0.48,0,1,0.337,0.87,0,1,0.193,-0.14,0.149,0,0.258,0.21,0,0.405
94996,20090809,-96.85,40.7,0.172,-0.19,0.179,0,0.217,0,0.036,0,0.266,0.11,0.018,0.018,0.303,0.5,0,1,0.337,0.86,0,1,0.195,-0.13,0.155,0,0.259,0.23,0,0.405
94996,20090810,-96.85,40.7,0.174,-0.18,0.179,0,0.219,0.01,0,0,0.269,0.14,0,0.018,0.304,0.51,0,1,0.336,0.86,0,1,0.196,-0.12,0.143,0,0.26,0.25,0,0.405
94996,20090811,-96.85,40.7,0.175,-0.17,0.083,0,0.22,0.01,0,0,0.27,0.14,0,0.006,0.305,0.52,0,1,0.336,0.85,0,1,0.197,-0.12,0.095,0,0.261,0.27,0,0.393
94996,20090812,-96.85,40.7,0.171,-0.21,0.095,0,0.215,-0.05,0,0,0.26,0.06,0,0,0.303,0.49,0,1,0.336,0.84,0,1,0.193,-0.17,0.149,0,0.257,0.19,0,0.25
94996,20090813,-96.85,40.7,0.169,-0.24,0.214,0,0.212,-0.09,0,0,0.251,-0.01,0,0,0.301,0.48,0,1,0.337,0.83,0,1,0.19,-0.2,0.286,0,0.254,0.14,0,0.107
94996,20090814,-96.85,40.7,0.166,-0.27,0.357,0,0.209,-0.13,0.03,0,0.244,-0.07,0,0,0.3,0.47,0,1,0.336,0.81,0,1,0.187,-0.23,0.429,0,0.251,0.09,0,0
94996,20090815,-96.85,40.7,0.164,-0.29,0.5,0,0.206,-0.17,0.149,0,0.238,-0.12,0.024,0,0.299,0.45,0,1,0.336,0.79,0,1,0.185,-0.26,0.571,0,0.249,0.05,0,0
94996,20090816,-96.85,40.7,0.165,-0.27,0.577,0,0.206,-0.17,0.262,0.018,0.236,-0.13,0.077,0.018,0.298,0.44,0,1,0.337,0.78,0,1,0.186,-0.25,0.655,0.018,0.248,0.05,0,0.024
94996,20090817,-96.85,40.7,0.174,-0.18,0.53,0,0.223,-0.02,0.262,0.161,0.249,-0.02,0.077,0.137,0.297,0.43,0,0.994,0.337,0.76,0,1,0.198,-0.12,0.607,0.143,0.256,0.15,0,0.167
94996,20090818,-96.85,40.7,0.181,-0.12,0.53,0,0.236,0.11,0.262,0.292,0.261,0.07,0.077,0.137,0.297,0.41,0,0.923,0.337,0.75,0,1,0.209,-0.02,0.589,0.143,0.262,0.24,0,0.31
94996,20090819,-96.85,40.7,0.187,-0.07,0.518,0,0.247,0.21,0.262,0.357,0.271,0.15,0.077,0.137,0.296,0.4,0,0.851,0.337,0.74,0,1,0.217,0.05,0.536,0.143,0.268,0.3,0,0.452
94996,20090820,-96.85,40.7,0.191,-0.03,0.399,0,0.256,0.29,0.262,0.357,0.281,0.22,0.077,0.137,0.296,0.39,0,0.798,0.337,0.72,0,1,0.224,0.12,0.399,0.143,0.272,0.35,0,0.548
94996,20090821,-96.85,40.7,0.194,0,0.256,0,0.264,0.36,0.232,0.357,0.289,0.29,0.077,0.137,0.295,0.38,0,0.75,0.337,0.7,0,1,0.229,0.17,0.256,0.143,0.276,0.4,0,0.548
94996,20090822,-96.85,40.7,0.197,0.03,0.113,0,0.269,0.41,0.113,0.357,0.296,0.34,0.054,0.137,0.295,0.37,0,0.661,0.337,0.69,0,1,0.233,0.21,0.113,0.143,0.279,0.43,0,0.548
94996,20090823,-96.85,40.7,0.197,0.02,0.006,0,0.27,0.42,0,0.339,0.299,0.37,0,0.119,0.295,0.36,0,0.613,0.337,0.68,0,1,0.233,0.22,0,0.125,0.279,0.43,0,0.524
94996,20090824,-96.85,40.7,0.186,-0.08,0.036,0,0.255,0.28,0,0.196,0.288,0.28,0,0,0.294,0.37,0,0.619,0.336,0.65,0,1,0.221,0.09,0,0,0.272,0.32,0,0.381
94996,20090825,-96.85,40.7,0.178,-0.15,0.107,0,0.242,0.16,0,0.065,0.277,0.2,0,0,0.294,0.37,0,0.69,0.336,0.63,0,1,0.21,-0.01,0,0,0.265,0.23,0,0.238
94996,20090826,-96.85,40.7,0.171,-0.21,0.226,0,0.23,0.05,0,0,0.267,0.12,0,0,0.294,0.37,0,0.762,0.335,0.61,0,1,0.201,-0.09,0,0,0.26,0.15,0,0.095
94996,20090827,-96.85,40.7,0.174,-0.18,0.226,0,0.221,-0.04,0,0,0.258,0.06,0,0,0.294,0.38,0,0.815,0.335,0.6,0,1,0.198,-0.11,0,0,0.257,0.11,0,0
94996,20090828,-96.85,40.7,0.177,-0.15,0.226,0,0.215,-0.11,0.006,0,0.251,0,0,0,0.294,0.38,0,0.863,0.335,0.58,0,1,0.196,-0.13,0,0,0.254,0.08,0,0
94996,20090829,-96.85,40.7,0.178,-0.14,0.226,0,0.211,-0.17,0.024,0,0.245,-0.04,0,0,0.294,0.38,0,0.94,0.334,0.56,0,1,0.194,-0.15,0,0,0.252,0.05,0,0
94996,20090830,-96.85,40.7,0.179,-0.13,0.22,0,0.208,-0.22,0.071,0,0.241,-0.08,0,0,0.294,0.38,0,0.976,0.334,0.54,0,1,0.193,-0.16,0,0,0.251,0.04,0,0
94996,20090831,-96.85,40.7,0.178,-0.13,0.214,0,0.206,-0.26,0.202,0,0.238,-0.11,0.048,0,0.294,0.36,0,0.905,0.334,0.54,0,1,0.192,-0.17,0.036,0,0.25,0.02,0,0
94996,20090901,-96.85,40.7,0.178,-0.14,0.226,0,0.205,-0.29,0.345,0,0.235,-0.13,0.19,0,0.293,0.34,0,0.774,0.334,0.53,0,0.994,0.191,-0.19,0.143,0,0.249,0,0,0
94996,20090902,-96.85,40.7,0.177,-0.14,0.244,0,0.203,-0.31,0.488,0,0.233,-0.15,0.333,0,0.293,0.32,0,0.631,0.334,0.52,0,0.994,0.19,-0.2,0.286,0,0.248,-0.02,0,0
94996,20090903,-96.85,40.7,0.168,-0.22,0.387,0,0.201,-0.33,0.631,0,0.231,-0.17,0.476,0,0.292,0.29,0,0.488,0.333,0.51,0,0.976,0.185,-0.24,0.429,0,0.245,-0.06,0,0
94996,20090904,-96.85,40.7,0.167,-0.23,0.44,0,0.199,-0.34,0.768,0,0.228,-0.19,0.619,0,0.291,0.27,0,0.345,0.333,0.5,0,0.964,0.183,-0.26,0.482,0,0.244,-0.07,0,0
94996,20090905,-96.85,40.7,0.172,-0.2,0.44,0,0.198,-0.34,0.762,0,0.227,-0.2,0.762,0,0.291,0.24,0,0.214,0.333,0.49,0,0.899,0.185,-0.24,0.482,0,0.244,-0.07,0,0
94996,20090906,-96.85,40.7,0.176,-0.17,0.44,0,0.198,-0.34,0.714,0,0.225,-0.21,0.899,0,0.29,0.22,0,0.083,0.333,0.49,0,0.863,0.187,-0.23,0.482,0,0.244,-0.07,0,0
94996,20090907,-96.85,40.7,0.179,-0.16,0.417,0,0.198,-0.33,0.583,0,0.225,-0.21,0.893,0,0.289,0.21,0,0.012,0.332,0.48,0,0.863,0.188,-0.22,0.446,0,0.245,-0.06,0,0
94996,20090908,-96.85,40.7,0.181,-0.16,0.399,0,0.199,-0.31,0.44,0,0.225,-0.2,0.75,0,0.289,0.21,0,0,0.333,0.47,0,0.869,0.19,-0.21,0.345,0,0.245,-0.05,0,0
94996,20090909,-96.85,40.7,0.183,-0.16,0.393,0,0.2,-0.3,0.298,0,0.225,-0.18,0.607,0,0.289,0.21,0,0.006,0.333,0.47,0,0.869,0.191,-0.21,0.333,0,0.246,-0.04,0,0
94996,20090910,-96.85,40.7,0.184,-0.16,0.393,0,0.201,-0.29,0.155,0,0.226,-0.17,0.464,0,0.29,0.22,0,0.065,0.333,0.47,0,0.887,0.193,-0.21,0.333,0,0.247,-0.03,0,0
94996,20090911,-96.85,40.7,0.18,-0.22,0.482,0,0.202,-0.28,0.012,0,0.227,-0.15,0.321,0,0.29,0.23,0,0.107,0.333,0.46,0,0.899,0.191,-0.24,0.423,0,0.246,-0.03,0,0
94996,20090912,-96.85,40.7,0.172,-0.3,0.625,0,0.202,-0.28,0.006,0,0.227,-0.14,0.179,0,0.291,0.24,0,0.143,0.333,0.46,0,0.964,0.187,-0.29,0.565,0,0.245,-0.05,0,0
94996,20090913,-96.85,40.7,0.167,-0.36,0.768,0,0.202,-0.29,0.018,0,0.227,-0.14,0.042,0,0.291,0.24,0,0.196,0.333,0.46,0,1,0.184,-0.33,0.708,0,0.244,-0.06,0,0
94996,20090914,-96.85,40.7,0.164,-0.4,0.911,0,0.201,-0.29,0.089,0,0.226,-0.13,0,0,0.291,0.25,0,0.298,0.333,0.46,0,1,0.183,-0.36,0.851,0,0.243,-0.06,0,0
94996,20090915,-96.85,40.7,0.162,-0.43,0.988,0,0.2,-0.3,0.22,0,0.226,-0.13,0,0,0.291,0.26,0,0.393,0.333,0.45,0,1,0.181,-0.39,0.988,0,0.243,-0.07,0,0
94996,20090916,-96.85,40.7,0.161,-0.45,1,0,0.199,-0.31,0.363,0,0.225,-0.13,0,0,0.291,0.26,0,0.512,0.334,0.45,0,1,0.18,-0.4,1,0,0.242,-0.07,0,0
94996,20090917,-96.85,40.7,0.16,-0.47,1,0,0.199,-0.32,0.506,0,0.224,-0.14,0.018,0,0.291,0.26,0,0.565,0.333,0.44,0,0.94,0.179,-0.42,1,0,0.241,-0.07,0,0
94996,20090918,-96.85,40.7,0.159,-0.49,1,0,0.198,-0.33,0.649,0,0.224,-0.14,0.125,0,0.291,0.26,0,0.667,0.332,0.41,0,0.804,0.178,-0.43,1,0,0.241,-0.08,0,0
94996,20090919,-96.85,40.7,0.157,-0.5,1,0,0.196,-0.34,0.786,0,0.223,-0.15,0.268,0,0.29,0.27,0,0.75,0.331,0.38,0,0.673,0.177,-0.44,1,0,0.24,-0.09,0,0
94996,20090920,-96.85,40.7,0.155,-0.51,1,0,0.195,-0.35,0.917,0,0.222,-0.16,0.411,0,0.29,0.27,0,0.839,0.33,0.36,0,0.542,0.175,-0.46,1,0,0.238,-0.1,0,0
94996,20090921,-96.85,40.7,0.152,-0.52,1,0,0.193,-0.36,0.988,0,0.221,-0.17,0.554,0,0.29,0.27,0,0.881,0.33,0.33,0,0.417,0.173,-0.47,1,0,0.237,-0.12,0,0
94996,20090922,-96.85,40.7,0.152,-0.51,0.994,0,0.192,-0.37,1,0,0.219,-0.18,0.696,0,0.29,0.27,0,0.929,0.329,0.3,0,0.274,0.172,-0.47,1,0,0.236,-0.12,0,0
94996,20090923,-96.85,40.7,0.153,-0.49,0.904,0,0.19,-0.39,1,0,0.218,-0.2,0.838,0,0.289,0.26,0,0.91,0.328,0.27,0,0.132,0.171,-0.47,1,0,0.236,-0.14,0,0
94996,20090924,-96.85,40.7,0.154,-0.46,0.784,0,0.188,-0.4,1,0,0.216,-0.22,0.964,0,0.289,0.26,0,0.832,0.327,0.24,0,0.048,0.171,-0.47,1,0,0.235,-0.14,0,0
94996,20090925,-96.85,40.7,0.155,-0.44,0.695,0,0.187,-0.4,1,0,0.215,-0.24,1,0,0.288,0.25,0,0.701,0.327,0.24,0,0.042,0.171,-0.46,1,0,0.235,-0.15,0,0
94996,20090926,-96.85,40.7,0.157,-0.42,0.659,0,0.186,-0.41,1,0,0.214,-0.25,1,0,0.287,0.24,0,0.581,0.327,0.22,0,0.03,0.172,-0.45,1,0,0.235,-0.14,0,0
94996,20090927,-96.85,40.7,0.162,-0.38,0.515,0,0.186,-0.4,1,0,0.214,-0.26,1,0,0.287,0.23,0,0.443,0.327,0.21,0,0.018,0.174,-0.42,0.91,0,0.235,-0.13,0,0
94996,20090928,-96.85,40.7,0.165,-0.35,0.371,0,0.186,-0.4,1,0,0.213,-0.27,1,0,0.287,0.23,0,0.299,0.326,0.19,0,0,0.176,-0.4,0.862,0,0.236,-0.12,0,0
94996,20090929,-96.85,40.7,0.166,-0.34,0.323,0,0.186,-0.39,1,0,0.212,-0.28,1,0,0.286,0.22,0,0.162,0.326,0.18,0,0,0.176,-0.4,0.862,0,0.235,-0.13,0,0
94996,20090930,-96.85,40.7,0.166,-0.35,0.417,0,0.186,-0.39,1,0,0.212,-0.28,1,0,0.285,0.2,0,0.06,0.326,0.17,0,0,0.176,-0.4,0.863,0,0.235,-0.13,0,0
94996,20091001,-96.85,40.7,0.165,-0.37,0.536,0,0.186,-0.38,1,0,0.212,-0.28,1,0,0.285,0.2,0,0.024,0.325,0.17,0,0,0.175,-0.4,0.863,0,0.235,-0.13,0,0
94996,20091002,-96.85,40.7,0.164,-0.38,0.625,0,0.186,-0.37,1,0,0.212,-0.27,1,0,0.285,0.2,0,0.012,0.325,0.16,0,0,0.175,-0.41,0.863,0,0.234,-0.13,0,0
94996,20091003,-96.85,40.7,0.162,-0.41,0.661,0,0.185,-0.38,1,0,0.211,-0.27,1,0,0.284,0.19,0,0.012,0.324,0.15,0,0,0.174,-0.42,0.863,0,0.233,-0.14,0.018,0
94996,20091004,-96.85,40.7,0.157,-0.45,0.804,0,0.184,-0.38,1,0,0.211,-0.27,1,0,0.284,0.18,0,0.006,0.324,0.14,0,0,0.171,-0.45,0.952,0,0.232,-0.16,0.071,0
94996,20091005,-96.85,40.7,0.153,-0.48,0.946,0,0.183,-0.38,1,0,0.21,-0.27,1,0,0.283,0.17,0,0.006,0.324,0.14,0,0,0.168,-0.47,1,0,0.231,-0.17,0.143,0
94996,20091006,-96.85,40.7,0.151,-0.49,0.976,0,0.183,-0.38,1,0,0.209,-0.26,0.935,0,0.282,0.16,0,0,0.323,0.13,0,0,0.167,-0.48,1,0,0.23,-0.18,0.179,0
94996,20091007,-96.85,40.7,0.152,-0.48,0.833,0,0.182,-0.38,1,0,0.209,-0.25,0.792,0,0.282,0.16,0,0,0.322,0.12,0,0,0.167,-0.46,0.946,0,0.229,-0.18,0.179,0
94996,20091008,-96.85,40.7,0.153,-0.45,0.69,0,0.181,-0.37,0.982,0,0.208,-0.25,0.655,0,0.281,0.15,0,0,0.322,0.1,0,0,0.167,-0.45,0.81,0,0.229,-0.18,0.179,0
94996,20091009,-96.85,40.7,0.155,-0.43,0.548,0,0.18,-0.36,0.97,0,0.207,-0.25,0.512,0,0.28,0.13,0,0,0.321,0.09,0,0,0.167,-0.42,0.667,0,0.229,-0.19,0.179,0
94996,20091010,-96.85,40.7,0.157,-0.4,0.405,0,0.18,-0.35,0.935,0,0.207,-0.25,0.417,0,0.28,0.12,0,0,0.32,0.09,0,0,0.168,-0.4,0.524,0,0.229,-0.19,0.161,0
94996,20091011,-96.85,40.7,0.159,-0.37,0.262,0,0.179,-0.35,0.935,0,0.206,-0.26,0.405,0,0.279,0.11,0,0,0.32,0.08,0,0,0.169,-0.37,0.399,0,0.228,-0.2,0.167,0
94996,20091012,-96.85,40.7,0.161,-0.33,0.119,0,0.178,-0.35,0.935,0,0.205,-0.26,0.399,0,0.278,0.1,0,0,0.319,0.08,0,0,0.17,-0.35,0.256,0,0.228,-0.2,0.19,0
94996,20091013,-96.85,40.7,0.164,-0.31,0,0,0.177,-0.35,0.935,0,0.203,-0.27,0.458,0,0.277,0.07,0,0,0.319,0.07,0,0,0.17,-0.33,0.113,0,0.228,-0.21,0.196,0
94996,20091014,-96.85,40.7,0.167,-0.29,0,0,0.176,-0.35,0.935,0,0.202,-0.3,0.601,0,0.276,0.05,0,0,0.319,0.06,0,0,0.171,-0.32,0.024,0,0.228,-0.22,0.214,0
94996,20091015,-96.85,40.7,0.177,-0.24,0,0,0.175,-0.36,0.952,0,0.201,-0.34,0.738,0,0.275,0.04,0,0,0.319,0.07,0,0,0.176,-0.29,0.018,0,0.229,-0.22,0.214,0
94996,20091016,-96.85,40.7,0.188,-0.18,0,0,0.176,-0.36,0.964,0,0.2,-0.37,0.881,0,0.274,0.02,0,0,0.318,0.06,0,0,0.182,-0.26,0.018,0,0.231,-0.21,0.214,0
94996,20091017,-96.85,40.7,0.199,-0.13,0,0,0.177,-0.36,0.982,0,0.2,-0.41,0.976,0,0.273,0.01,0,0,0.318,0.05,0,0,0.188,-0.23,0.018,0,0.233,-0.2,0.214,0
94996,20091018,-96.85,40.7,0.209,-0.09,0,0,0.179,-0.36,0.976,0,0.2,-0.44,0.988,0,0.273,0,0,0,0.317,0.04,0,0,0.194,-0.2,0,0,0.236,-0.19,0.155,0
94996,20091019,-96.85,40.7,0.218,-0.05,0,0,0.182,-0.36,0.887,0,0.201,-0.47,0.994,0,0.273,-0.01,0,0,0.316,0.03,0,0,0.2,-0.18,0,0,0.238,-0.18,0.06,0
94996,20091020,-96.85,40.7,0.226,-0.02,0,0,0.185,-0.35,0.75,0,0.202,-0.5,1,0,0.273,-0.01,0,0,0.316,0.02,0,0,0.205,-0.16,0,0,0.24,-0.17,0.018,0
94996,20091021,-96.85,40.7,0.23,-0.01,0,0,0.189,-0.34,0.607,0,0.203,-0.51,1,0,0.273,0,0,0,0.316,0.02,0,0,0.209,-0.15,0,0,0.242,-0.17,0,0
94996,20091022,-96.85,40.7,0.237,0.01,0,0.024,0.197,-0.3,0.464,0.012,0.206,-0.5,0.952,0,0.273,0,0,0,0.315,0.01,0,0,0.217,-0.12,0,0.012,0.246,-0.15,0,0
94996,20091023,-96.85,40.7,0.248,0.07,0,0.149,0.225,-0.13,0.321,0.155,0.231,-0.32,0.81,0.119,0.274,0.01,0,0,0.315,0,0,0,0.237,-0.01,0,0.155,0.259,-0.02,0,0.137
94996,20091024,-96.85,40.7,0.257,0.12,0,0.155,0.25,0.02,0.196,0.298,0.26,-0.1,0.667,0.262,0.279,0.1,0,0.107,0.314,-0.01,0,0,0.253,0.08,0,0.298,0.272,0.11,0,0.28
94996,20091025,-96.85,40.7,0.265,0.17,0,0.155,0.273,0.16,0.06,0.44,0.288,0.1,0.524,0.405,0.285,0.21,0,0.25,0.314,-0.01,0,0,0.269,0.17,0,0.44,0.285,0.24,0,0.423
94996,20091026,-96.85,40.7,0.275,0.22,0,0.155,0.295,0.29,0.006,0.583,0.314,0.31,0.381,0.548,0.292,0.32,0,0.393,0.314,-0.01,0,0,0.285,0.25,0,0.56,0.298,0.36,0,0.565
94996,20091027,-96.85,40.7,0.284,0.27,0,0.156,0.315,0.41,0,0.725,0.34,0.5,0.24,0.689,0.299,0.44,0,0.533,0.314,-0.01,0,0,0.299,0.33,0,0.587,0.31,0.49,0,0.707
94996,20091028,-96.85,40.7,0.292,0.32,0,0.156,0.335,0.53,0,0.868,0.364,0.7,0.096,0.832,0.306,0.56,0,0.677,0.314,-0.01,0,0,0.314,0.41,0,0.587,0.322,0.61,0,0.85
94996,20091029,-96.85,40.7,0.293,0.32,0,0.156,0.349,0.61,0,1,0.387,0.88,0,0.976,0.313,0.68,0,0.82,0.313,-0.01,0,0,0.321,0.45,0,0.599,0.331,0.69,0,0.994
94996,20091030,-96.85,40.7,0.295,0.34,0,0.174,0.351,0.61,0,1,0.396,0.95,0,1,0.328,0.94,0,0.964,0.315,0.01,0,0.042,0.323,0.46,0,0.599,0.337,0.75,0,1
94996,20091031,-96.85,40.7,0.297,0.35,0,0.311,0.352,0.6,0,1,0.397,0.97,0,1,0.343,1.21,0,1,0.32,0.09,0,0.186,0.324,0.47,0,0.599,0.342,0.79,0,1
94996,20091101,-96.85,40.7,0.298,0.36,0,0.401,0.353,0.59,0,1,0.399,1,0,1,0.357,1.45,0,1,0.323,0.14,0,0.329,0.325,0.48,0,0.599,0.346,0.82,0,1
94996,20091102,-96.85,40.7,0.299,0.38,0,0.419,0.354,0.57,0,1,0.401,1.02,0,1,0.37,1.69,0,1,0.326,0.19,0,0.467,0.326,0.49,0,0.623,0.35,0.85,0,1
94996,20091103,-96.85,40.7,0.299,0.38,0,0.417,0.355,0.56,0,1,0.402,1.04,0,1,0.382,1.91,0,1,0.328,0.23,0,0.56,0.327,0.49,0,0.726,0.353,0.87,0,1
94996,20091104,-96.85,40.7,0.299,0.39,0,0.417,0.356,0.54,0,1,0.404,1.07,0,1,0.394,2.13,0,1,0.33,0.27,0,0.577,0.328,0.49,0,0.732,0.357,0.89,0,1
94996,20091105,-96.85,40.7,0.298,0.39,0,0.393,0.356,0.53,0,1,0.405,1.08,0,1,0.405,2.35,0,1,0.333,0.31,0,0.589,0.327,0.48,0,0.708,0.359,0.9,0,1
94996,20091106,-96.85,40.7,0.288,0.33,0,0.25,0.348,0.46,0,1,0.397,1.03,0,1,0.408,2.41,0,1,0.333,0.31,0,0.548,0.318,0.42,0,0.565,0.355,0.84,0,1
94996,20091107,-96.85,40.7,0.282,0.3,0,0.107,0.343,0.43,0,1,0.393,1.01,0,1,0.406,2.39,0,1,0.33,0.27,0,0.405,0.313,0.38,0,0.423,0.351,0.8,0,1